Location: NCO
(38.4404°N, 77.1340°W)
Time: 10:11:52
(UTC-04:00)

ISS - Visible Passes

Search period start: 21 September 2018 00:00
Search period end: 01 October 2018 00:00
Orbit: 403 x 408 km, 51.6° (Epoch: 21 September)

Date Brightness Start Highest point End Pass type
(mag) Time Alt. Az. Time Alt. Az. Time Alt. Az.
21 Sep -2.6 19:51:25 10° S 19:54:10 25° SE 19:56:03 15° E visible
21 Sep -1.1 21:27:34 10° W 21:28:48 19° W 21:28:48 19° W visible
22 Sep -3.3 20:35:25 10° WSW 20:38:39 58° NW 20:39:44 36° NNE visible
23 Sep -3.9 19:43:32 10° SW 19:46:48 69° SE 19:50:06 10° NE visible
23 Sep -1.0 21:21:14 10° WNW 21:23:10 18° NW 21:23:10 18° NW visible
24 Sep -1.8 20:28:41 10° W 20:31:33 27° NNW 20:33:42 14° NNE visible
25 Sep -2.8 19:36:22 10° WSW 19:39:33 45° NW 19:42:45 10° NE visible
25 Sep -0.8 21:15:23 10° NW 21:16:43 12° NNW 21:16:46 12° NNW visible
26 Sep -1.1 20:22:25 10° WNW 20:24:32 16° NNW 20:26:39 10° NNE visible
27 Sep -1.6 19:29:43 10° W 19:32:24 23° NNW 19:35:06 10° NNE visible
28 Sep -0.9 20:16:42 10° NNW 20:17:37 11° NNW 20:18:31 10° N visible
29 Sep -1.1 19:23:31 10° NW 19:25:21 14° NNW 19:27:12 10° NNE visible
